This is the latest recevied weather packets stored in our database for station/object SP1BMW-13. If no packets are shown the sender has not sent any weather packets the latest 10 day(s).
| Time | Temp. | Humidity | Pressure | Rain* | Wind** | Luminosity | Snow |
|---|---|---|---|---|---|---|---|
| 1777287471 | 15.56° C | 33% | 1022.1 hPa | 0 mm | 1.79 m/s, 301° | 668 W/m² | - |
| 1777287411 | 15.56° C | 31% | 1022.1 hPa | 0 mm | 0.45 m/s, 284° | 666 W/m² | - |
| 1777287351 | 15.56° C | 31% | 1022.1 hPa | 0 mm | 0.45 m/s, 213° | 663 W/m² | - |
| 1777287291 | 15.56° C | 32% | 1022 hPa | 0 mm | 1.79 m/s, 286° | 654 W/m² | - |
| 1777287231 | 15.56° C | 32% | 1022.1 hPa | 0 mm | 1.34 m/s, 302° | 663 W/m² | - |
| 1777287171 | 15.56° C | 35% | 1022 hPa | 0 mm | 0.89 m/s, 305° | 663 W/m² | - |
| 1777287111 | 15.56° C | 34% | 1022.2 hPa | 0 mm | 0.89 m/s, 340° | 664 W/m² | - |
| 1777287051 | 15.56° C | 31% | 1022.3 hPa | 0 mm | 0.89 m/s, 252° | 666 W/m² | - |
| 1777286991 | 15° C | 33% | 1022.3 hPa | 0 mm | 1.34 m/s, 283° | 663 W/m² | - |
| 1777286931 | 15° C | 34% | 1022 hPa | 0 mm | 1.79 m/s, 328° | 663 W/m² | - |
| 1777286872 | 15° C | 34% | 1022 hPa | 0 mm | 1.34 m/s, 303° | 664 W/m² | - |
| 1777286811 | 15° C | 31% | 1022.2 hPa | 0 mm | 1.34 m/s, 224° | 661 W/m² | - |
| 1777286754 | 15.56° C | 31% | 1022 hPa | 0 mm | 2.24 m/s, 279° | 663 W/m² | - |
| 1777286691 | 15.56° C | 32% | 1022.1 hPa | 0 mm | 2.68 m/s, 291° | 664 W/m² | - |
| 1777286631 | 15.56° C | 33% | 1022.2 hPa | 0 mm | 0.89 m/s, 301° | 664 W/m² | - |
| 1777286572 | 15.56° C | 32% | 1022.2 hPa | 0 mm | 2.68 m/s, 300° | 662 W/m² | - |
| 1777286511 | 15.56° C | 33% | 1022.2 hPa | 0 mm | 0.89 m/s, 304° | 660 W/m² | - |
| 1777286451 | 15.56° C | 34% | 1022.3 hPa | 0 mm | 3.13 m/s, 332° | 661 W/m² | - |
| 1777286391 | 15.56° C | 33% | 1022.3 hPa | 0 mm | 1.79 m/s, 283° | 663 W/m² | - |
| 1777286331 | 15.56° C | 34% | 1022.2 hPa | 0 mm | 0.89 m/s, 149° | 661 W/m² | - |
| 1777286271 | 15.56° C | 35% | 1022.2 hPa | 0 mm | 2.68 m/s, 325° | 660 W/m² | - |
| 1777286211 | 15.56° C | 36% | 1022.3 hPa | 0 mm | 1.79 m/s, 288° | 662 W/m² | - |
| 1777286151 | 15.56° C | 36% | 1022.3 hPa | 0 mm | 0.45 m/s, 61° | 663 W/m² | - |
| 1777286091 | 15.56° C | 34% | 1022.3 hPa | 0 mm | 0.89 m/s, 313° | 653 W/m² | - |
| 1777286031 | 15.56° C | 33% | 1022.2 hPa | 0 mm | 1.34 m/s, 202° | 655 W/m² | - |
* Rain latest hour (hover to see other rain measurements)
** Current wind speed in m/s (hover to see current wind gust speed)